Overview Statistics Trail Chart Weather Telemetry Raw packets
 

This is the latest recevied weather packets stored in our database for station/object N2VUZ-1. If no packets are shown the sender has not sent any weather packets the latest 10 day(s).

<< 15 16 17 18 19 20 21 >>
Time Temp. Humidity Pressure Rain* Wind** Luminosity Snow
1788187461 27.22° C 81% 1018.6 hPa 0 mm - - -
1788187161 27.22° C 81% 1018.4 hPa 0 mm - - -
1788186861 27.78° C 79% 1018.6 hPa 0 mm - - -
1788186561 27.78° C 79% 1018.6 hPa 0 mm - - -
1788186261 27.78° C 79% 1018.6 hPa 0 mm - - -
1788185961 27.22° C 82% 1018.4 hPa 0 mm - - -
1788185661 27.22° C 81% 1018.6 hPa 0 mm - - -
1788185361 27.22° C 81% 1018.6 hPa 0 mm - - -
1788185061 27.22° C 82% 1018.6 hPa 0 mm - - -
1788184761 26.67° C 83% 1018.8 hPa 0 mm - - -
1788184461 26.67° C 83% 1018.6 hPa 0 mm - - -
1788184161 26.67° C 83% 1018.7 hPa 0 mm - - -
1788183861 27.22° C 82% 1018.5 hPa 0 mm - - -
1788183561 27.22° C 82% 1018.7 hPa 0 mm - - -
1788183261 27.22° C 82% 1018.7 hPa 0 mm - - -
1788182961 26.11° C 84% 1018.6 hPa 0 mm - - -
1788182661 25.56° C 87% 1019 hPa 0 mm - - -
1788182361 25° C 89% 1018.9 hPa 0 mm - - -
1788182061 25° C 90% 1019 hPa 0 mm - - -
1788181761 24.44° C 92% 1018.6 hPa 0 mm - - -
1788181461 23.89° C 93% 1018.9 hPa 0 mm - - -
1788181161 23.89° C 93% 1018.8 hPa 0 mm - - -
1788180861 23.89° C 93% 1018.7 hPa 0 mm - - -
1788180561 23.33° C 93% 1018.8 hPa 0 mm - - -
1788180261 23.33° C 93% 1018.7 hPa 0 mm - - -

* Rain latest hour (hover to see other rain measurements)
** Current wind speed in m/s (hover to see current wind gust speed)